Time,TemperatureF,DewpointF,PressureIn,WindDirection,WindDirectionDegrees,WindSpeedMPH,WindSpeedGustMPH,Humidity,HourlyPrecipIn,Conditions,Clouds,dailyrainin,SoftwareType,DateUTC
2013-04-03 00:02:00,35.0,32.0,-100.00,NE,40,4.0,9.0,88,-99.99,,,-99.99,,2013-04-03 06:02:00,
2013-04-03 00:12:00,35.0,32.0,-100.00,NE,35,4.0,7.0,88,-99.99,,,-99.99,,2013-04-03 06:12:00,
2013-04-03 00:22:00,35.0,32.0,-100.00,NNE,20,4.0,9.0,88,-99.99,,,-99.99,,2013-04-03 06:22:00,
2013-04-03 00:32:00,35.0,32.0,-100.00,North,10,4.0,7.0,88,-99.99,,,-99.99,,2013-04-03 06:32:00,
2013-04-03 00:42:00,35.0,32.0,-100.00,North,10,3.0,6.0,88,-99.99,,,-99.99,,2013-04-03 06:42:00,
2013-04-03 00:52:00,35.0,32.0,-100.00,North,10,4.0,6.0,88,-99.99,,,-99.99,,2013-04-03 06:52:00,
2013-04-03 01:02:00,36.0,33.0,-100.00,NNE,15,5.0,7.0,89,-99.99,,,-99.99,,2013-04-03 07:02:00,
2013-04-03 01:12:00,36.0,33.0,-100.00,NNE,30,3.0,6.0,88,-99.99,,,-99.99,,2013-04-03 07:12:00,
2013-04-03 01:23:00,36.0,33.0,-100.00,NE,40,4.0,6.0,89,-99.99,,,-99.99,,2013-04-03 07:23:00,
2013-04-03 01:32:00,36.0,33.0,-100.00,NNE,25,4.0,7.0,89,-99.99,,,-99.99,,2013-04-03 07:32:00,
2013-04-03 01:42:00,36.0,33.0,-100.00,NNE,20,2.0,6.0,88,-99.99,,,-99.99,,2013-04-03 07:42:00,
2013-04-03 01:52:00,36.0,33.0,-100.00,North,10,4.0,7.0,88,-99.99,,,-99.99,,2013-04-03 07:52:00,
2013-04-03 02:02:00,36.0,33.0,-100.00,NNE,15,6.0,7.0,88,-99.99,,,-99.99,,2013-04-03 08:02:00,
2013-04-03 02:12:00,36.0,33.0,-100.00,North,10,4.0,7.0,88,-99.99,,,-99.99,,2013-04-03 08:12:00,
2013-04-03 02:22:00,36.0,33.0,-100.00,North,5,3.0,6.0,88,-99.99,,,-99.99,,2013-04-03 08:22:00,
2013-04-03 02:32:00,36.0,33.0,-100.00,North,10,4.0,6.0,88,-99.99,,,-99.99,,2013-04-03 08:32:00,
2013-04-03 02:42:00,36.0,33.0,-100.00,North,5,4.0,6.0,88,-99.99,,,-99.99,,2013-04-03 08:42:00,
2013-04-03 02:52:00,36.0,33.0,-100.00,North,5,4.0,7.0,88,-99.99,,,-99.99,,2013-04-03 08:52:00,
2013-04-03 03:02:00,36.0,33.0,-100.00,NNW,330,4.0,6.0,88,-99.99,,,-99.99,,2013-04-03 09:02:00,
2013-04-03 03:12:00,36.0,33.0,-100.00,NNW,330,4.0,6.0,88,-99.99,,,-99.99,,2013-04-03 09:12:00,
2013-04-03 03:22:00,36.0,33.0,-100.00,NW,325,5.0,6.0,88,-99.99,,,-99.99,,2013-04-03 09:22:00,
2013-04-03 03:33:00,36.0,33.0,-100.00,NW,325,5.0,6.0,88,-99.99,,,-99.99,,2013-04-03 09:33:00,
2013-04-03 03:43:00,36.0,33.0,-100.00,NW,320,6.0,6.0,88,-99.99,,,-99.99,,2013-04-03 09:43:00,
2013-04-03 03:52:00,36.0,33.0,-100.00,NNW,335,4.0,6.0,88,-99.99,,,-99.99,,2013-04-03 09:52:00,
2013-04-03 04:03:00,35.0,33.0,-100.00,NNW,340,6.0,6.0,88,-99.99,,,-99.99,,2013-04-03 10:03:00,
2013-04-03 04:12:00,36.0,33.0,-100.00,NNW,345,6.0,7.0,88,-99.99,,,-99.99,,2013-04-03 10:12:00,
2013-04-03 04:22:00,36.0,33.0,-100.00,North,0,7.0,9.0,88,-99.99,,,-99.99,,2013-04-03 10:22:00,
2013-04-03 04:33:00,36.0,33.0,-100.00,North,5,7.0,9.0,88,-99.99,,,-99.99,,2013-04-03 10:33:00,
2013-04-03 04:42:00,36.0,33.0,-100.00,North,0,6.0,9.0,88,-99.99,,,-99.99,,2013-04-03 10:42:00,
2013-04-03 04:52:00,36.0,33.0,-100.00,NNE,15,9.0,12.0,88,-99.99,,,-99.99,,2013-04-03 10:52:00,
2013-04-03 05:02:00,36.0,33.0,-100.00,NNE,20,9.0,12.0,89,-99.99,,,-99.99,,2013-04-03 11:02:00,
2013-04-03 05:12:00,35.0,33.0,-100.00,NNE,30,6.0,12.0,89,-99.99,,,-99.99,,2013-04-03 11:12:00,
2013-04-03 05:22:00,36.0,33.0,-100.00,NE,35,7.0,9.0,88,-99.99,,,-99.99,,2013-04-03 11:22:00,
2013-04-03 05:32:00,36.0,33.0,-100.00,NE,35,6.0,10.0,88,-99.99,,,-99.99,,2013-04-03 11:32:00,
2013-04-03 05:42:00,36.0,33.0,-100.00,NE,35,6.0,7.0,88,-99.99,,,-99.99,,2013-04-03 11:42:00,
2013-04-03 05:52:00,36.0,33.0,-100.00,NE,45,4.0,7.0,88,-99.99,,,-99.99,,2013-04-03 11:52:00,
2013-04-03 06:02:00,35.0,33.0,-100.00,NE,55,3.0,6.0,88,-99.99,,,-99.99,,2013-04-03 12:02:00,
2013-04-03 06:12:00,35.0,33.0,-100.00,ENE,70,2.0,4.0,88,-99.99,,,-99.99,,2013-04-03 12:12:00,
2013-04-03 06:22:00,35.0,33.0,-100.00,SSE,165,1.0,2.0,88,-99.99,,,-99.99,,2013-04-03 12:22:00,
2013-04-03 06:32:00,35.0,33.0,-100.00,SSE,165,1.0,2.0,88,-99.99,,,-99.99,,2013-04-03 12:32:00,
2013-04-03 06:42:00,35.0,32.0,-100.00,SSW,210,1.0,2.0,88,-99.99,,,-99.99,,2013-04-03 12:42:00,
2013-04-03 06:52:00,35.0,32.0,-100.00,SW,215,1.0,1.0,88,-99.99,,,-99.99,,2013-04-03 12:52:00,
2013-04-03 07:02:00,35.0,32.0,-100.00,NW,320,2.0,2.0,88,-99.99,,,-99.99,,2013-04-03 13:02:00,
2013-04-03 07:12:00,35.0,32.0,-100.00,WNW,295,2.0,2.0,88,-99.99,,,-99.99,,2013-04-03 13:12:00,
2013-04-03 07:22:00,35.0,32.0,-100.00,WNW,285,4.0,5.0,88,-99.99,,,-99.99,,2013-04-03 13:22:00,
2013-04-03 07:32:00,35.0,32.0,-100.00,NW,305,4.0,5.0,88,-99.99,,,-99.99,,2013-04-03 13:32:00,
2013-04-03 07:42:00,35.0,32.0,-100.00,WNW,290,4.0,5.0,88,-99.99,,,-99.99,,2013-04-03 13:42:00,
2013-04-03 07:52:00,35.0,33.0,-100.00,NW,305,4.0,5.0,88,-99.99,,,-99.99,,2013-04-03 13:52:00,
2013-04-03 08:02:00,36.0,33.0,-100.00,NW,315,2.0,4.0,88,-99.99,,,-99.99,,2013-04-03 14:02:00,
2013-04-03 08:12:00,36.0,33.0,-100.00,NW,320,2.0,4.0,88,-99.99,,,-99.99,,2013-04-03 14:12:00,
2013-04-03 08:22:00,36.0,33.0,-100.00,NW,320,1.0,3.0,88,-99.99,,,-99.99,,2013-04-03 14:22:00,
2013-04-03 08:32:00,37.0,34.0,-100.00,SSW,195,0.0,2.0,88,-99.99,,,-99.99,,2013-04-03 14:32:00,
2013-04-03 08:42:00,37.0,35.0,-100.00,WSW,245,1.0,4.0,88,-99.99,,,-99.99,,2013-04-03 14:42:00,
2013-04-03 08:52:00,38.0,35.0,-100.00,SSW,210,4.0,4.0,88,-99.99,,,-99.99,,2013-04-03 14:52:00,
2013-04-03 09:02:00,38.0,35.0,-100.00,SSW,210,4.0,6.0,88,-99.99,,,-99.99,,2013-04-03 15:02:00,
2013-04-03 09:12:00,38.0,35.0,-100.00,SSW,210,3.0,5.0,88,-99.99,,,-99.99,,2013-04-03 15:12:00,
2013-04-03 09:23:00,38.0,35.0,-100.00,SW,215,5.0,7.0,88,-99.99,,,-99.99,,2013-04-03 15:23:00,
2013-04-03 09:33:00,39.0,36.0,-100.00,SW,215,6.0,7.0,88,-99.99,,,-99.99,,2013-04-03 15:33:00,
2013-04-03 09:42:00,39.0,36.0,-100.00,SW,215,6.0,7.0,88,-99.99,,,-99.99,,2013-04-03 15:42:00,
2013-04-03 09:53:00,40.0,36.0,-100.00,SW,215,5.0,7.0,87,-99.99,,,-99.99,,2013-04-03 15:53:00,
2013-04-03 10:03:00,40.0,36.0,-100.00,SW,220,6.0,8.0,85,-99.99,,,-99.99,,2013-04-03 16:03:00,
2013-04-03 10:12:00,41.0,36.0,-100.00,SSW,195,5.0,7.0,83,-99.99,,,-99.99,,2013-04-03 16:12:00,
2013-04-03 10:23:00,42.0,36.0,-100.00,South,175,5.0,7.0,81,-99.99,,,-99.99,,2013-04-03 16:23:00,
2013-04-03 10:32:00,42.0,37.0,-100.00,South,175,4.0,7.0,78,-99.99,,,-99.99,,2013-04-03 16:32:00,
2013-04-03 10:43:00,42.0,35.0,-100.00,South,180,4.0,8.0,73,-99.99,,,-99.99,,2013-04-03 16:43:00,
2013-04-03 10:52:00,42.0,33.0,-100.00,South,175,7.0,10.0,69,-99.99,,,-99.99,,2013-04-03 16:52:00,
2013-04-03 11:02:00,42.0,32.0,-100.00,South,170,6.0,11.0,66,-99.99,,,-99.99,,2013-04-03 17:02:00,
2013-04-03 11:13:00,43.0,33.0,-100.00,South,175,5.0,7.0,67,-99.99,,,-99.99,,2013-04-03 17:13:00,
2013-04-03 11:22:00,43.0,33.0,-100.00,South,175,5.0,7.0,67,-99.99,,,-99.99,,2013-04-03 17:22:00,
2013-04-03 11:32:00,45.0,33.0,-100.00,South,170,2.0,6.0,62,-99.99,,,-99.99,,2013-04-03 17:32:00,
2013-04-03 11:45:00,44.0,32.0,-100.00,SE,145,6.0,9.0,61,-99.99,,,-99.99,,2013-04-03 17:45:00,
2013-04-03 11:53:00,45.0,32.0,-100.00,ENE,70,3.0,7.0,61,-99.99,,,-99.99,,2013-04-03 17:53:00,
2013-04-03 12:02:00,45.0,32.0,-100.00,SE,145,4.0,10.0,59,-99.99,,,-99.99,,2013-04-03 18:02:00,
2013-04-03 12:12:00,46.0,33.0,-100.00,SSE,165,7.0,9.0,58,-99.99,,,-99.99,,2013-04-03 18:12:00,
2013-04-03 12:22:00,46.0,32.0,-100.00,SE,130,6.0,10.0,57,-99.99,,,-99.99,,2013-04-03 18:22:00,
2013-04-03 12:33:00,47.0,33.0,-100.00,SSW,195,3.0,9.0,57,-99.99,,,-99.99,,2013-04-03 18:33:00,
2013-04-03 12:42:00,48.0,33.0,-100.00,SE,130,4.0,7.0,56,-99.99,,,-99.99,,2013-04-03 18:42:00,
2013-04-03 12:52:00,49.0,32.0,-100.00,East,95,2.0,7.0,52,-99.99,,,-99.99,,2013-04-03 18:52:00,
2013-04-03 13:02:00,50.0,32.0,-100.00,SSE,165,5.0,7.0,50,-99.99,,,-99.99,,2013-04-03 19:02:00,
2013-04-03 13:12:00,49.0,32.0,-100.00,SE,125,8.0,10.0,50,-99.99,,,-99.99,,2013-04-03 19:12:00,
2013-04-03 13:22:00,51.0,33.0,-100.00,SE,145,5.0,9.0,49,-99.99,,,-99.99,,2013-04-03 19:22:00,
2013-04-03 13:32:00,52.0,33.0,-100.00,SSE,160,6.0,10.0,47,-99.99,,,-99.99,,2013-04-03 19:32:00,
2013-04-03 13:42:00,52.0,32.0,-100.00,SE,135,7.0,8.0,46,-99.99,,,-99.99,,2013-04-03 19:42:00,
2013-04-03 13:52:00,52.0,32.0,-100.00,North,0,1.0,11.0,46,-99.99,,,-99.99,,2013-04-03 19:52:00,
2013-04-03 14:02:00,53.0,32.0,-100.00,SSE,150,7.0,9.0,45,-99.99,,,-99.99,,2013-04-03 20:02:00,
2013-04-03 14:12:00,53.0,32.0,-100.00,East,80,4.0,9.0,44,-99.99,,,-99.99,,2013-04-03 20:12:00,
2013-04-03 14:22:00,55.0,31.0,-100.00,NE,50,1.0,6.0,40,-99.99,,,-99.99,,2013-04-03 20:22:00,
2013-04-03 14:32:00,56.0,32.0,-100.00,SSW,210,2.0,6.0,39,-99.99,,,-99.99,,2013-04-03 20:32:00,
2013-04-03 14:42:00,55.0,30.0,-100.00,South,190,2.0,7.0,38,-99.99,,,-99.99,,2013-04-03 20:42:00,
2013-04-03 14:52:00,56.0,31.0,-100.00,NNE,15,6.0,8.0,38,-99.99,,,-99.99,,2013-04-03 20:52:00,
2013-04-03 15:02:00,56.0,30.0,-100.00,NNE,15,6.0,9.0,36,-99.99,,,-99.99,,2013-04-03 21:02:00,
2013-04-03 15:12:00,57.0,30.0,-100.00,North,350,2.0,6.0,34,-99.99,,,-99.99,,2013-04-03 21:12:00,
2013-04-03 15:22:00,57.0,30.0,-100.00,North,350,2.0,6.0,34,-99.99,,,-99.99,,2013-04-03 21:22:00,
2013-04-03 15:32:00,58.0,29.0,-100.00,SE,130,5.0,9.0,33,-99.99,,,-99.99,,2013-04-03 21:32:00,
2013-04-03 15:42:00,60.0,30.0,-100.00,NNW,335,2.0,9.0,31,-99.99,,,-99.99,,2013-04-03 21:42:00,
2013-04-03 15:52:00,59.0,30.0,-100.00,NE,35,4.0,9.0,32,-99.99,,,-99.99,,2013-04-03 21:52:00,
2013-04-03 16:02:00,59.0,28.0,-100.00,NNW,330,4.0,10.0,30,-99.99,,,-99.99,,2013-04-03 22:02:00,
2013-04-03 16:12:00,60.0,28.0,-100.00,NNE,25,2.0,6.0,29,-99.99,,,-99.99,,2013-04-03 22:12:00,
2013-04-03 16:22:00,60.0,28.0,-100.00,ENE,75,2.0,9.0,28,-99.99,,,-99.99,,2013-04-03 22:22:00,
2013-04-03 16:32:00,62.0,28.0,-100.00,NE,45,4.0,5.0,27,-99.99,,,-99.99,,2013-04-03 22:32:00,
2013-04-03 16:42:00,60.0,27.0,-100.00,ESE,120,4.0,7.0,28,-99.99,,,-99.99,,2013-04-03 22:42:00,
2013-04-03 16:52:00,61.0,27.0,-100.00,ESE,105,4.0,7.0,27,-99.99,,,-99.99,,2013-04-03 22:52:00,
2013-04-03 17:02:00,59.0,26.0,-100.00,NW,320,4.0,6.0,27,-99.99,,,-99.99,,2013-04-03 23:02:00,
2013-04-03 17:12:00,60.0,25.0,-100.00,NNE,25,5.0,7.0,26,-99.99,,,-99.99,,2013-04-03 23:12:00,
2013-04-03 17:22:00,60.0,25.0,-100.00,ENE,65,1.0,6.0,26,-99.99,,,-99.99,,2013-04-03 23:22:00,
2013-04-03 17:32:00,59.0,24.0,-100.00,NNE,20,3.0,8.0,25,-99.99,,,-99.99,,2013-04-03 23:32:00,
2013-04-03 17:42:00,59.0,24.0,-100.00,ENE,65,3.0,5.0,24,-99.99,,,-99.99,,2013-04-03 23:42:00,
2013-04-03 17:53:00,59.0,24.0,-100.00,ENE,75,4.0,9.0,25,-99.99,,,-99.99,,2013-04-03 23:53:00,
2013-04-03 18:02:00,59.0,23.0,-100.00,North,10,6.0,11.0,24,-99.99,,,-99.99,,2013-04-04 00:02:00,
2013-04-03 18:12:00,59.0,23.0,-100.00,NE,35,7.0,9.0,24,-99.99,,,-99.99,,2013-04-04 00:12:00,
2013-04-03 18:22:00,58.0,23.0,-100.00,NE,55,6.0,9.0,25,-99.99,,,-99.99,,2013-04-04 00:22:00,
2013-04-03 18:32:00,58.0,23.0,-100.00,NNE,25,6.0,9.0,25,-99.99,,,-99.99,,2013-04-04 00:32:00,
2013-04-03 18:43:00,58.0,23.0,-100.00,NE,45,6.0,9.0,25,-99.99,,,-99.99,,2013-04-04 00:43:00,
2013-04-03 18:52:00,58.0,23.0,-100.00,ENE,70,5.0,9.0,25,-99.99,,,-99.99,,2013-04-04 00:52:00,
2013-04-03 19:02:00,58.0,22.0,-100.00,NE,50,6.0,9.0,25,-99.99,,,-99.99,,2013-04-04 01:02:00,
2013-04-03 19:12:00,57.0,22.0,-100.00,NE,45,3.0,7.0,25,-99.99,,,-99.99,,2013-04-04 01:12:00,
2013-04-03 19:22:00,56.0,22.0,-100.00,NNE,30,3.0,6.0,26,-99.99,,,-99.99,,2013-04-04 01:22:00,
2013-04-03 19:32:00,55.0,22.0,-100.00,NE,55,4.0,6.0,28,-99.99,,,-99.99,,2013-04-04 01:32:00,
2013-04-03 19:43:00,53.0,22.0,-100.00,NE,50,3.0,5.0,30,-99.99,,,-99.99,,2013-04-04 01:43:00,
2013-04-03 19:52:00,50.0,23.0,-100.00,NE,50,3.0,4.0,33,-99.99,,,-99.99,,2013-04-04 01:52:00,
2013-04-03 20:02:00,49.0,23.0,-100.00,NE,50,3.0,4.0,35,-99.99,,,-99.99,,2013-04-04 02:02:00,
2013-04-03 20:12:00,49.0,23.0,-100.00,NE,50,3.0,4.0,35,-99.99,,,-99.99,,2013-04-04 02:12:00,
2013-04-03 20:22:00,48.0,24.0,-100.00,East,95,3.0,4.0,37,-99.99,,,-99.99,,2013-04-04 02:22:00,
2013-04-03 20:32:00,48.0,24.0,-100.00,East,95,4.0,4.0,38,-99.99,,,-99.99,,2013-04-04 02:32:00,
2013-04-03 20:42:00,48.0,24.0,-100.00,East,95,4.0,4.0,38,-99.99,,,-99.99,,2013-04-04 02:42:00,
2013-04-03 20:52:00,48.0,24.0,-100.00,East,95,4.0,4.0,38,-99.99,,,-99.99,,2013-04-04 02:52:00,
2013-04-03 21:02:00,48.0,24.0,-100.00,SE,125,4.0,6.0,39,-99.99,,,-99.99,,2013-04-04 03:02:00,
2013-04-03 21:12:00,45.0,24.0,-100.00,SE,140,6.0,6.0,42,-99.99,,,-99.99,,2013-04-04 03:12:00,
2013-04-03 21:22:00,46.0,23.0,-100.00,SSE,165,6.0,7.0,40,-99.99,,,-99.99,,2013-04-04 03:22:00,
2013-04-03 21:33:00,45.0,24.0,-100.00,East,95,4.0,7.0,42,-99.99,,,-99.99,,2013-04-04 03:33:00,
2013-04-03 21:43:00,42.0,26.0,-100.00,ENE,65,5.0,6.0,51,-99.99,,,-99.99,,2013-04-04 03:43:00,
2013-04-03 21:53:00,42.0,27.0,-100.00,ENE,75,6.0,7.0,55,-99.99,,,-99.99,,2013-04-04 03:53:00,
2013-04-03 22:02:00,41.0,27.0,-100.00,ENE,65,7.0,7.0,57,-99.99,,,-99.99,,2013-04-04 04:02:00,
2013-04-03 22:12:00,41.0,28.0,-100.00,ENE,60,7.0,9.0,59,-99.99,,,-99.99,,2013-04-04 04:12:00,
2013-04-03 22:23:00,40.0,28.0,-100.00,East,90,6.0,7.0,61,-99.99,,,-99.99,,2013-04-04 04:23:00,
2013-04-03 22:33:00,41.0,28.0,-100.00,East,95,6.0,7.0,60,-99.99,,,-99.99,,2013-04-04 04:33:00,
2013-04-03 22:42:00,41.0,28.0,-100.00,ESE,120,6.0,7.0,60,-99.99,,,-99.99,,2013-04-04 04:42:00,
2013-04-03 22:52:00,40.0,28.0,-100.00,ESE,115,7.0,7.0,63,-99.99,,,-99.99,,2013-04-04 04:52:00,
2013-04-03 23:02:00,41.0,29.0,-100.00,SSE,155,7.0,11.0,61,-99.99,,,-99.99,,2013-04-04 05:02:00,
2013-04-03 23:12:00,40.0,29.0,-100.00,ESE,105,3.0,7.0,62,-99.99,,,-99.99,,2013-04-04 05:12:00,
2013-04-03 23:23:00,40.0,29.0,-100.00,SE,145,3.0,4.0,65,-99.99,,,-99.99,,2013-04-04 05:23:00,
2013-04-03 23:32:00,40.0,30.0,-100.00,SSW,195,11.0,14.0,65,-99.99,,,-99.99,,2013-04-04 05:32:00,
2013-04-03 23:42:00,40.0,29.0,-100.00,South,185,7.0,11.0,65,-99.99,,,-99.99,,2013-04-04 05:42:00,
2013-04-03 23:52:00,40.0,29.0,-100.00,SSE,160,6.0,8.0,64,-99.99,,,-99.99,,2013-04-04 05:52:00,